DW9572 Weather Reports


time (UTC)temp
C
wind
direction
speed
KPH
gust
KPH
rain 1hr
cm
rain 24hr
cm
rain mn
cm
humidity
%
barometer
mb
20260906201512 20 45 9.7 17.7 0.00 0.08 0.08 45 1013.9
20260906200028 20 352 8.0 16.1 0.00 0.08 0.08 46 1013.8
20260906194652 20 325 9.7 17.7 0.00 0.08 0.08 47 1013.7
20260906193047 19 10 6.4 16.1 0.00 0.08 0.08 51 1013.9
20260906191528 18 249 9.7 30.6 0.00 0.08 0.08 62 1014.1
20260906190026 18 274 16.1 24.1 0.00 0.08 0.08 64 1014.4
20260906184507 18 29 6.4 17.7 0.00 0.08 0.08 55 1014.5
20260906183003 16 222 9.7 16.1 0.00 0.08 0.08 75 1014.4
20260906181546 15 249 9.7 20.9 0.00 0.08 0.08 81 1014.5
20260906180046 15 278 12.9 19.3 0.00 0.08 0.08 76 1014.7
20260906174534 16 330 1.6 6.4 0.00 0.08 0.08 71 1014.3
20260906173025 15 3 1.6 8.0 0.00 0.08 0.08 75 1014.2
20260906171505 15 349 3.2 6.4 0.00 0.08 0.08 79 1014.3
20260906170004 15 3 0.0 1.6 0.03 0.08 0.08 82 1014.6
20260906164554 14 359 3.2 3.2 0.05 0.08 0.08 81 1014.6
20260906163051 14 335 6.4 17.7 0.08 0.08 0.08 79 1014.7
20260906161529 13 318 12.9 20.9 0.08 0.08 0.08 78 1015.0
20260906160043 13 298 17.7 24.1 0.05 0.05 0.05 79 1015.1
20260906154526 12 296 14.5 27.4 0.03 0.03 0.03 80 1015.4
20260906153021 14 279 11.3 16.1 0.00 0.00 0.00 72 1015.1
20260906151519 15 335 0.0 9.7 0.00 0.00 0.00 64 1014.7
20260906150038 14 269 8.0 16.1 0.00 0.00 0.00 68 1014.7
20260906144512 15 273 4.8 9.7 0.00 0.00 0.00 62 1014.7
20260906143020 16 354 1.6 11.3 0.00 0.00 0.00 53 1014.5
20260906141604 16 345 6.4 12.9 0.00 0.00 0.00 53 1014.3
20260906140057 16 1 3.2 9.7 0.00 0.00 0.00 53 1014.2
20260906134549 16 37 4.8 9.7 0.00 0.00 0.00 53 1013.9
20260906133049 16 49 4.8 14.5 0.00 0.00 0.00 53 1013.8
20260906131546 16 5 4.8 9.7 0.00 0.00 0.00 56 1013.9
20260906130146 13 53 1.6 9.7 0.00 0.00 0.00 67 1014.0
20260906124545 13 273 4.8 16.1 0.00 0.00 0.00 73 1014.2
20260906123042 13 269 6.4 9.7 0.00 0.00 0.00 72 1014.3
20260906121518 13 284 3.2 11.3 0.00 0.00 0.00 72 1014.5
20260906120016 13 278 4.8 11.3 0.00 0.00 0.00 71 1014.5
20260906114559 15 281 11.3 16.1 0.00 0.00 0.00 65 1014.5
20260906113104 16 73 8.0 12.9 0.00 0.00 0.00 53 1014.2
20260906111546 17 11 8.0 22.5 0.00 0.00 0.00 52 1014.3
20260906110043 17 360 14.5 25.7 0.00 0.00 0.00 53 1014.2
20260906104523 16 23 11.3 19.3 0.00 0.00 0.00 55 1014.3
20260906103019 15 51 6.4 9.7 0.00 0.00 0.00 62 1014.3
20260906101557 15 79 9.7 12.9 0.00 0.00 0.00 61 1014.3
20260906100054 15 52 9.7 14.5 0.00 0.00 0.00 59 1014.4
20260906094602 15 12 17.7 25.7 0.00 0.00 0.00 58 1014.4
20260906093039 16 18 19.3 27.4 0.00 0.00 0.00 59 1014.5
20260906091518 16 13 20.9 27.4 0.00 0.00 0.00 59 1014.6
20260906090018 16 359 16.1 22.5 0.00 0.00 0.00 60 1014.6
20260906084600 15 343 17.7 20.9 0.00 0.00 0.00 62 1014.8
20260906083100 15 3 14.5 20.9 0.00 0.00 0.00 63 1014.9
20260906081551 15 357 22.5 27.4 0.00 0.00 0.00 64 1014.9
20260906080049 15 16 16.1 24.1 0.00 0.00 0.00 65 1015.1
20260906074522 15 34 17.7 24.1 0.00 0.00 0.00 63 1015.1
20260906073022 16 337 14.5 19.3 0.00 0.00 0.00 59 1015.3
20260906071504 16 18 16.1 27.4 0.00 0.00 0.00 61 1015.3
20260906070003 15 357 17.7 24.1 0.00 0.00 0.00 62 1015.0
20260906064545 15 1 19.3 25.7 0.00 0.00 0.00 64 1015.2
20260906063045 15 36 12.9 22.5 0.00 0.00 0.00 61 1015.1
20260906061535 17 22 11.3 16.1 0.00 0.00 0.00 54 1014.9
20260906060028 18 16 11.3 17.7 0.00 0.00 0.00 53 1014.9
20260906054509 18 8 11.3 19.3 0.00 0.00 0.00 52 1014.8
20260906053011 18 356 12.9 17.7 0.00 0.00 0.00 53 1014.9
20260906051549 17 318 1.6 9.7 0.00 0.00 0.00 56 1015.2
20260906050100 17 304 3.2 6.4 0.00 0.00 0.00 57 1015.4
20260906044534 17 293 3.2 6.4 0.00 0.00 0.00 55 1015.3
20260906043030 17 331 0.0 4.8 0.00 0.00 0.00 55 1015.3
20260906041514 17 260 0.0 4.8 0.00 0.00 0.00 55 1015.2
20260906040012 18 340 9.7 16.1 0.00 0.00 0.00 51 1014.9
20260906034603 18 330 9.7 14.5 0.00 0.00 0.00 51 1014.9
20260906033057 18 316 6.4 9.7 0.00 0.00 0.00 51 1014.8
20260906031547 18 333 1.6 8.0 0.00 0.00 0.00 52 1014.6
20260906030037 19 316 11.3 14.5 0.00 0.00 0.00 52 1014.4
20260906024521 20 320 14.5 20.9 0.00 0.00 0.00 52 1014.4
20260906023020 20 313 12.9 16.1 0.00 0.00 0.00 51 1014.4
20260906021502 20 264 8.0 8.0 0.00 0.00 0.00 51 1014.5
20260906020106 21 259 6.4 9.7 0.00 0.00 0.00 47 1014.5
20260906020002 21 257 6.4 9.7 0.00 0.00 0.00 47 1014.4
20260906014552 22 260 9.7 16.1 0.00 0.00 0.00 45 1014.4
20260906013042 22 256 14.5 17.7 0.00 0.00 0.00 44 1014.4
20260906011524 22 218 16.1 19.3 0.00 0.00 0.00 44 1014.4
20260906010024 22 221 16.1 19.3 0.00 0.00 0.00 45 1014.4
20260906004505 23 235 16.1 22.5 0.00 0.00 0.00 45 1014.3
20260906003003 23 203 16.1 22.5 0.00 0.00 0.00 44 1014.4
20260906001544 23 267 14.5 24.1 0.00 0.00 0.00 43 1014.5
20260906000044 22 239 17.7 27.4 0.00 0.00 0.00 46 1014.5
20260905234525 22 259 20.9 30.6 0.00 0.00 0.00 47 1014.5
20260905233031 22 260 22.5 30.6 0.00 0.00 0.00 45 1014.6
20260905231507 22 244 24.1 29.0 0.00 0.00 0.00 46 1014.6
20260905230006 22 215 20.9 29.0 0.00 0.00 0.00 47 1014.6
20260905224610 21 207 14.5 22.5 0.00 0.00 0.00 51 1014.6
20260905223051 22 260 20.9 27.4 0.00 0.00 0.00 49 1014.8
20260905221550 23 222 12.9 19.3 0.00 0.00 0.00 38 1015.1
20260905220046 23 205 4.8 14.5 0.00 0.00 0.00 39 1015.1
20260905214544 22 146 6.4 11.3 0.00 0.00 0.00 40 1015.4
20260905213041 22 156 8.0 16.1 0.00 0.00 0.00 40 1015.5
20260905211545 22 128 0.0 8.0 0.00 0.00 0.00 41 1015.6
20260905210050 21 11 6.4 11.3 0.00 0.00 0.00 43 1015.7
20260905204534 21 336 0.0 9.7 0.00 0.00 0.00 45 1015.8
20260905203015 21 72 12.9 17.7 0.00 0.00 0.00 46 1016.0